Time,TemperatureF,DewpointF,PressureIn,WindDirection,WindDirectionDegrees,WindSpeedMPH,WindSpeedGustMPH,Humidity,HourlyPrecipIn,Conditions,Clouds,dailyrainin,SoftwareType,DateUTC
2013-05-15 00:01:00,50.0,43.0,30.10,NNW,347,9.0,11.0,78,0.00,,,0.00,,2013-05-15 07:01:00,
2013-05-15 00:11:00,50.0,43.0,30.10,NNW,347,9.0,11.0,78,0.00,,,0.00,,2013-05-15 07:11:00,
2013-05-15 00:21:00,50.0,43.0,30.10,North,352,1.0,9.0,76,0.00,,,0.00,,2013-05-15 07:21:00,
2013-05-15 00:31:00,50.0,41.0,30.11,NW,326,9.0,11.0,72,0.00,,,0.00,,2013-05-15 07:31:00,
2013-05-15 00:41:00,50.0,41.0,30.11,NW,326,9.0,11.0,72,0.00,,,0.00,,2013-05-15 07:41:00,
2013-05-15 00:52:00,50.0,41.0,30.10,NW,322,10.0,10.0,72,0.00,,,0.00,,2013-05-15 07:52:00,
2013-05-15 01:01:00,50.0,43.0,30.11,NW,324,9.0,10.0,76,0.00,,,0.00,,2013-05-15 08:01:00,
2013-05-15 01:11:00,50.0,42.0,30.10,NW,324,10.0,11.0,75,0.00,,,0.00,,2013-05-15 08:11:00,
2013-05-15 01:21:00,50.0,42.0,30.10,NW,324,10.0,11.0,75,0.00,,,0.00,,2013-05-15 08:21:00,
2013-05-15 01:31:00,50.0,41.0,30.10,NNW,331,7.0,10.0,72,0.00,,,0.00,,2013-05-15 08:31:00,
2013-05-15 01:41:00,50.0,42.0,30.10,NNW,330,8.0,9.0,73,0.00,,,0.00,,2013-05-15 08:41:00,
2013-05-15 01:53:00,50.0,42.0,30.10,NNW,330,8.0,9.0,73,0.00,,,0.00,,2013-05-15 08:53:00,
2013-05-15 02:01:00,50.0,41.0,30.10,NNW,329,6.0,10.0,72,0.00,,,0.00,,2013-05-15 09:01:00,
2013-05-15 02:11:00,50.0,42.0,30.10,NNW,334,6.0,8.0,75,0.00,,,0.00,,2013-05-15 09:11:00,
2013-05-15 02:21:00,50.0,42.0,30.10,NNW,334,6.0,8.0,75,0.00,,,0.00,,2013-05-15 09:21:00,
2013-05-15 02:32:00,51.0,44.0,30.09,NW,326,0.0,7.0,77,0.00,,,0.00,,2013-05-15 09:32:00,
2013-05-15 02:42:00,51.0,44.0,30.09,NW,326,0.0,7.0,77,0.00,,,0.00,,2013-05-15 09:42:00,
2013-05-15 02:53:00,51.0,44.0,30.09,North,0,0.0,0.0,78,0.00,,,0.00,,2013-05-15 09:53:00,
2013-05-15 03:02:00,51.0,45.0,30.09,North,0,0.0,0.0,79,0.00,,,0.00,,2013-05-15 10:02:00,
2013-05-15 03:12:00,51.0,45.0,30.09,North,0,0.0,0.0,79,0.00,,,0.00,,2013-05-15 10:12:00,
2013-05-15 03:22:00,51.0,45.0,30.09,North,0,0.0,0.0,79,0.00,,,0.00,,2013-05-15 10:22:00,
2013-05-15 03:32:00,51.0,45.0,30.09,North,0,0.0,0.0,79,0.00,,,0.00,,2013-05-15 10:32:00,
2013-05-15 03:42:00,52.0,45.0,30.09,North,0,0.0,0.0,78,0.00,,,0.00,,2013-05-15 10:42:00,
2013-05-15 03:52:00,52.0,45.0,30.09,North,0,0.0,0.0,78,0.00,,,0.00,,2013-05-15 10:52:00,
2013-05-15 04:05:00,52.0,45.0,30.09,North,0,0.0,0.0,78,0.00,,,0.00,,2013-05-15 11:05:00,
2013-05-15 04:12:00,52.0,45.0,30.08,North,0,0.0,0.0,78,0.00,,,0.00,,2013-05-15 11:12:00,
2013-05-15 04:21:00,52.0,45.0,30.08,North,0,0.0,0.0,78,0.00,,,0.00,,2013-05-15 11:21:00,
2013-05-15 04:32:00,52.0,45.0,30.08,North,0,0.0,0.0,78,0.00,,,0.00,,2013-05-15 11:32:00,
2013-05-15 04:42:00,52.0,45.0,30.07,North,0,0.0,0.0,78,0.00,,,0.00,,2013-05-15 11:42:00,
2013-05-15 04:57:00,52.0,45.0,30.07,North,0,0.0,0.0,78,0.00,,,0.00,,2013-05-15 11:57:00,
2013-05-15 05:11:00,52.0,45.0,30.06,North,0,0.0,0.0,78,0.00,,,0.00,,2013-05-15 12:11:00,
2013-05-15 05:22:00,52.0,45.0,30.06,North,0,0.0,0.0,78,0.00,,,0.00,,2013-05-15 12:22:00,
2013-05-15 05:33:00,52.0,45.0,30.06,North,0,0.0,0.0,78,0.00,,,0.00,,2013-05-15 12:33:00,
2013-05-15 05:42:00,52.0,45.0,30.06,North,0,0.0,0.0,78,0.00,,,0.00,,2013-05-15 12:42:00,
2013-05-15 06:02:00,52.0,45.0,30.06,North,0,0.0,0.0,77,0.00,,,0.00,,2013-05-15 13:02:00,
2013-05-15 06:11:00,52.0,45.0,30.06,North,0,0.0,0.0,77,0.00,,,0.00,,2013-05-15 13:11:00,
2013-05-15 06:32:00,52.0,45.0,30.06,North,0,0.0,0.0,76,0.00,,,0.00,,2013-05-15 13:32:00,
2013-05-15 06:42:00,52.0,45.0,30.06,North,0,0.0,0.0,76,0.00,,,0.00,,2013-05-15 13:42:00,
2013-05-15 06:57:00,52.0,45.0,30.06,North,0,0.0,0.0,77,0.00,,,0.00,,2013-05-15 13:57:00,
2013-05-15 07:11:00,52.0,46.0,30.08,North,0,0.0,0.0,81,0.00,,,0.00,,2013-05-15 14:11:00,
2013-05-15 07:21:00,52.0,46.0,30.08,North,0,0.0,0.0,81,0.00,,,0.00,,2013-05-15 14:21:00,
2013-05-15 07:32:00,52.0,47.0,30.08,North,0,0.0,0.0,83,0.01,,,0.01,,2013-05-15 14:32:00,
2013-05-15 07:42:00,52.0,47.0,30.08,North,0,0.0,0.0,83,0.01,,,0.01,,2013-05-15 14:42:00,
2013-05-15 07:54:00,52.0,47.0,30.09,South,170,8.0,8.0,82,0.01,,,0.01,,2013-05-15 14:54:00,
2013-05-15 08:11:00,52.0,45.0,30.09,South,169,7.0,9.0,78,0.01,,,0.01,,2013-05-15 15:11:00,
2013-05-15 08:22:00,52.0,45.0,30.09,South,169,7.0,9.0,78,0.01,,,0.01,,2013-05-15 15:22:00,
2013-05-15 08:32:00,53.0,47.0,30.09,SSE,151,7.0,8.0,79,0.00,,,0.01,,2013-05-15 15:32:00,
2013-05-15 08:43:00,53.0,47.0,30.09,SSE,151,7.0,8.0,79,0.00,,,0.01,,2013-05-15 15:43:00,
2013-05-15 08:57:00,52.0,46.0,30.09,North,0,0.0,8.0,79,0.00,,,0.01,,2013-05-15 15:57:00,
2013-05-15 09:03:00,53.0,47.0,30.09,North,0,0.0,0.0,80,0.00,,,0.01,,2013-05-15 16:03:00,
2013-05-15 09:13:00,53.0,48.0,30.09,North,0,0.0,0.0,82,0.00,,,0.01,,2013-05-15 16:13:00,
2013-05-15 09:32:00,53.0,48.0,30.09,North,0,0.0,0.0,83,0.00,,,0.01,,2013-05-15 16:32:00,
2013-05-15 09:42:00,53.0,48.0,30.09,North,0,0.0,0.0,83,0.00,,,0.01,,2013-05-15 16:42:00,
2013-05-15 10:11:00,54.0,51.0,30.10,North,0,0.0,0.0,88,0.00,,,0.01,,2013-05-15 17:11:00,
2013-05-15 10:22:00,55.0,52.0,30.09,North,0,0.0,0.0,89,0.00,,,0.01,,2013-05-15 17:22:00,
2013-05-15 10:32:00,55.0,52.0,30.09,SSE,151,0.0,9.0,88,0.00,,,0.01,,2013-05-15 17:32:00,
2013-05-15 10:42:00,55.0,52.0,30.09,SSE,151,0.0,9.0,88,0.00,,,0.01,,2013-05-15 17:42:00,
2013-05-15 10:57:00,55.0,51.0,30.09,SSE,149,8.0,9.0,87,0.00,,,0.01,,2013-05-15 17:57:00,
2013-05-15 11:11:00,55.0,50.0,30.09,ESE,112,8.0,12.0,84,0.00,,,0.01,,2013-05-15 18:11:00,
2013-05-15 11:32:00,55.0,51.0,30.09,ESE,114,9.0,12.0,85,0.00,,,0.01,,2013-05-15 18:32:00,
2013-05-15 11:42:00,55.0,51.0,30.09,ESE,114,9.0,12.0,85,0.00,,,0.01,,2013-05-15 18:42:00,
2013-05-15 11:55:00,55.0,51.0,30.09,East,85,11.0,14.0,85,0.00,,,0.01,,2013-05-15 18:55:00,
2013-05-15 12:02:00,55.0,50.0,30.09,East,88,11.0,15.0,83,0.00,,,0.01,,2013-05-15 19:02:00,
2013-05-15 12:11:00,55.0,50.0,30.09,East,88,11.0,15.0,83,0.00,,,0.01,,2013-05-15 19:11:00,
2013-05-15 12:22:00,55.0,50.0,30.09,ESE,103,10.0,16.0,84,0.00,,,0.01,,2013-05-15 19:22:00,
2013-05-15 12:32:00,55.0,50.0,30.09,SE,131,9.0,14.0,82,0.00,,,0.01,,2013-05-15 19:32:00,
2013-05-15 12:42:00,55.0,50.0,30.09,SE,131,9.0,14.0,82,0.00,,,0.01,,2013-05-15 19:42:00,
2013-05-15 12:55:00,57.0,52.0,30.09,East,96,12.0,15.0,84,0.00,,,0.01,,2013-05-15 19:55:00,
2013-05-15 13:01:00,58.0,55.0,30.09,ENE,78,12.0,16.0,89,0.00,,,0.01,,2013-05-15 20:01:00,
2013-05-15 13:22:00,59.0,55.0,30.07,East,79,7.0,15.0,87,0.00,,,0.01,,2013-05-15 20:22:00,
2013-05-15 13:42:00,59.0,54.0,30.06,ENE,57,8.0,15.0,84,0.00,,,0.01,,2013-05-15 20:42:00,
2013-05-15 13:54:00,59.0,54.0,30.06,SSE,152,4.0,14.0,83,0.00,,,0.01,,2013-05-15 20:54:00,
2013-05-15 14:02:00,59.0,52.0,30.06,SSE,165,8.0,12.0,78,0.00,,,0.01,,2013-05-15 21:02:00,
2013-05-15 14:12:00,59.0,52.0,30.06,SSE,165,8.0,12.0,78,0.00,,,0.01,,2013-05-15 21:12:00,
2013-05-15 14:24:00,59.0,52.0,30.06,SSE,158,6.0,11.0,78,0.00,,,0.01,,2013-05-15 21:24:00,
2013-05-15 14:34:00,58.0,51.0,30.06,SSE,156,12.0,16.0,78,0.00,,,0.01,,2013-05-15 21:34:00,
2013-05-15 15:03:00,58.0,53.0,30.07,SSE,165,10.0,16.0,83,0.00,,,0.01,,2013-05-15 22:03:00,
2013-05-15 15:14:00,58.0,53.0,30.07,SSE,165,10.0,16.0,83,0.00,,,0.01,,2013-05-15 22:14:00,
2013-05-15 15:24:00,57.0,52.0,30.06,South,175,14.0,19.0,84,0.00,,,0.01,,2013-05-15 22:24:00,
2013-05-15 15:33:00,57.0,53.0,30.06,SE,130,11.0,16.0,86,0.00,,,0.01,,2013-05-15 22:33:00,
2013-05-15 15:43:00,57.0,53.0,30.06,SE,130,11.0,16.0,86,0.00,,,0.01,,2013-05-15 22:43:00,
2013-05-15 15:55:00,58.0,50.0,30.06,SSE,161,14.0,22.0,74,0.00,,,0.01,,2013-05-15 22:55:00,
2013-05-15 16:11:00,58.0,50.0,30.06,SSE,149,12.0,19.0,74,0.00,,,0.01,,2013-05-15 23:11:00,
2013-05-15 16:22:00,57.0,51.0,30.05,SSE,163,12.0,19.0,79,0.00,,,0.01,,2013-05-15 23:22:00,
2013-05-15 16:32:00,57.0,51.0,30.05,SSE,155,9.0,18.0,79,0.00,,,0.01,,2013-05-15 23:32:00,
2013-05-15 16:42:00,57.0,51.0,30.05,SSE,155,9.0,18.0,79,0.00,,,0.01,,2013-05-15 23:42:00,
2013-05-15 16:56:00,57.0,51.0,30.04,SSE,147,10.0,18.0,81,0.00,,,0.01,,2013-05-15 23:56:00,
2013-05-15 17:01:00,57.0,51.0,30.04,South,175,12.0,20.0,80,0.00,,,0.01,,2013-05-16 00:01:00,
2013-05-15 17:12:00,57.0,51.0,30.04,SSE,166,10.0,19.0,81,0.00,,,0.01,,2013-05-16 00:12:00,
2013-05-15 17:23:00,57.0,51.0,30.04,SSE,166,10.0,19.0,81,0.00,,,0.01,,2013-05-16 00:23:00,
2013-05-15 17:32:00,56.0,50.0,30.04,SSE,162,13.0,19.0,81,0.00,,,0.01,,2013-05-16 00:32:00,
2013-05-15 17:42:00,56.0,50.0,30.04,SE,142,16.0,20.0,79,0.00,,,0.01,,2013-05-16 00:42:00,
2013-05-15 18:02:00,56.0,50.0,30.03,SSE,147,15.0,21.0,81,0.00,,,0.01,,2013-05-16 01:02:00,
2013-05-15 18:31:00,56.0,51.0,30.03,SSE,163,17.0,23.0,83,0.00,,,0.01,,2013-05-16 01:31:00,
2013-05-15 18:42:00,56.0,51.0,30.03,SSE,163,17.0,23.0,83,0.00,,,0.01,,2013-05-16 01:42:00,
2013-05-15 18:56:00,56.0,51.0,30.02,SSE,152,15.0,22.0,83,0.00,,,0.01,,2013-05-16 01:56:00,
2013-05-15 19:02:00,55.0,50.0,30.02,SSE,159,21.0,26.0,82,0.00,,,0.01,,2013-05-16 02:02:00,
2013-05-15 19:11:00,55.0,50.0,30.02,SSE,159,21.0,26.0,82,0.00,,,0.01,,2013-05-16 02:11:00,
2013-05-15 19:23:00,55.0,50.0,30.02,SSE,158,18.0,27.0,82,0.00,,,0.01,,2013-05-16 02:23:00,
2013-05-15 19:42:00,55.0,50.0,30.02,SSE,152,13.0,27.0,83,0.00,,,0.01,,2013-05-16 02:42:00,
2013-05-15 19:54:00,55.0,50.0,30.02,SSE,152,13.0,27.0,83,0.00,,,0.01,,2013-05-16 02:54:00,
2013-05-15 20:11:00,54.0,49.0,30.03,SSE,156,14.0,25.0,83,0.00,,,0.01,,2013-05-16 03:11:00,
2013-05-15 20:32:00,54.0,50.0,30.01,SE,144,18.0,21.0,86,0.00,,,0.01,,2013-05-16 03:32:00,
2013-05-15 20:43:00,54.0,50.0,30.01,SE,144,18.0,21.0,86,0.00,,,0.01,,2013-05-16 03:43:00,
2013-05-15 20:56:00,54.0,50.0,30.01,South,184,17.0,23.0,87,0.00,,,0.01,,2013-05-16 03:56:00,
2013-05-15 21:02:00,54.0,51.0,30.01,SSE,154,11.0,21.0,88,0.00,,,0.01,,2013-05-16 04:02:00,
2013-05-15 21:12:00,54.0,51.0,30.01,SSE,154,11.0,21.0,88,0.00,,,0.01,,2013-05-16 04:12:00,
2013-05-15 21:22:00,55.0,52.0,30.01,SSE,148,13.0,18.0,88,0.00,,,0.01,,2013-05-16 04:22:00,
2013-05-15 21:32:00,55.0,52.0,30.01,SSE,168,14.0,19.0,88,0.00,,,0.01,,2013-05-16 04:32:00,
2013-05-15 21:42:00,55.0,52.0,30.01,SSE,168,14.0,19.0,88,0.00,,,0.01,,2013-05-16 04:42:00,
2013-05-15 21:53:00,55.0,52.0,30.01,SSE,159,13.0,19.0,88,0.00,,,0.01,,2013-05-16 04:53:00,
2013-05-15 22:02:00,55.0,52.0,30.01,SSE,155,11.0,19.0,88,0.00,,,0.01,,2013-05-16 05:02:00,
2013-05-15 22:11:00,55.0,52.0,30.01,SSE,155,11.0,19.0,88,0.00,,,0.01,,2013-05-16 05:11:00,
2013-05-15 22:22:00,55.0,51.0,30.03,SE,133,13.0,19.0,87,0.00,,,0.01,,2013-05-16 05:22:00,
2013-05-15 22:32:00,55.0,52.0,30.03,SE,140,12.0,19.0,90,0.00,,,0.01,,2013-05-16 05:32:00,
2013-05-15 22:42:00,55.0,52.0,30.03,SE,140,12.0,19.0,90,0.00,,,0.01,,2013-05-16 05:42:00,
2013-05-15 22:52:00,55.0,51.0,30.02,SE,140,12.0,21.0,87,0.00,,,0.01,,2013-05-16 05:52:00,
2013-05-15 23:01:00,55.0,50.0,30.02,SSE,159,11.0,20.0,83,0.00,,,0.01,,2013-05-16 06:01:00,
2013-05-15 23:12:00,55.0,51.0,30.02,SE,137,12.0,20.0,86,0.00,,,0.01,,2013-05-16 06:12:00,
2013-05-15 23:22:00,55.0,51.0,30.02,SE,137,12.0,20.0,86,0.00,,,0.01,,2013-05-16 06:22:00,
2013-05-15 23:33:00,55.0,50.0,30.02,SSE,152,15.0,21.0,84,0.00,,,0.01,,2013-05-16 06:33:00,
2013-05-15 23:42:00,55.0,50.0,30.02,SSE,152,15.0,21.0,84,0.00,,,0.01,,2013-05-16 06:42:00,
2013-05-15 23:52:00,55.0,51.0,30.02,SE,138,12.0,22.0,85,0.00,,,0.01,,2013-05-16 06:52:00,